Kingsport, TN

1:32 AM EST on February 09, 2016 (GMT -0500)
Tri-Cities Regional Tennessee / Virginia

Weather History for KTRI - July, 2013

Change the Weather History Date:

Saturday, July 20, 2013

  Actual Average Record
Temperature  
Mean Temperature 75 °F 75 °F  
Max Temperature 83 °F 86 °F 95 °F (1977)
Min Temperature 67 °F 64 °F 57 °F (2004)
Degree Days  
Heating Degree Days 0 0  
Month to date heating degree days 0 0  
Since 1 June heating degree days 0 11  
Since 1 July heating degree days 0 0  
Cooling Degree Days 10 10  
Month to date cooling degree days 208 197  
Year to date cooling degree days 503 476  
Since 1 June cooling degree days 431 403  
Growing Degree Days 24 (Base 50)    
Moisture  
Dew Point 69 °F    
Average Humidity 86    
Maximum Humidity 97    
Minimum Humidity 74    
Precipitation  
Precipitation 0.51 in 0.15 in 1.35 in (1938)
Month to date precipitation 6.01 3.02  
Year to date precipitation 39.07 24.31  
Snow  
Snow 0.00 in 0.00 in - ()
Month to date snowfall 0.0 0.0  
Since 1 June snowfall 0.0 0.0  
Since 1 July snowfall 0.0 0.0  
Snow Depth 0.00 in    
Sea Level Pressure  
Sea Level Pressure 29.99 in    
Wind  
Wind Speed 2 mph (SSE)    
Max Wind Speed 20 mph    
Max Gust Speed 26 mph    
Visibility 7 miles    
Events Rain , Thunderstorm    
T = Trace of Precipitation, MM = Missing Value Source: NWS Daily Summary

Daily Weather History Graph

Daily Weather History Graph

Search for Another Location

Airport or City:

Trip Planner

Search our weather history database for the weather conditions in past years. The results will help you decide how hot, cold, wet, or windy it might be!

Date:

Astronomy

Jul. 20, 2013 Rise Set
Actual Time 6:26 AM EDT 8:44 PM EDT
Civil Twilight 5:57 AM EDT 9:14 PM EDT
Nautical Twilight 5:21 AM EDT 9:49 PM EDT
Astronomical Twilight 4:42 AM EDT 10:29 PM EDT
Moon 6:47 PM EDT (7/20) 4:05 AM EDT (7/20)
Length of Visible Light 15h 16m
Length of Day
14h 17m
Waxing Gibbous, 93% of the Moon is Illuminated
Jul 20
Waxing Gibbous
Jul 22
Full
Jul 29
Last Quarter
Aug 6
New
Aug 14
First Quarter

Hourly Weather History & Observations

Time (EDT) Temp. Heat Index Dew Point Humidity Pressure Visibility Wind Dir Wind Speed Gust Speed Precip Events Conditions
12:13 AM 70.0 °F - 66.9 °F 90% 30.07 in 8.0 mi SW 4.6 mph - 0.01 in Rain Light Rain
12:53 AM 71.1 °F - 68.0 °F 90% 29.98 in 10.0 mi Calm Calm - 0.01 in   Mostly Cloudy
1:53 AM 69.1 °F - 66.9 °F 93% 29.99 in 10.0 mi Calm Calm - N/A   Mostly Cloudy
2:53 AM 68.0 °F - 66.9 °F 96% 29.99 in 4.0 mi Calm Calm - N/A   Mostly Cloudy
3:53 AM 68.0 °F - 66.0 °F 93% 29.98 in 7.0 mi Calm Calm - N/A   Mostly Cloudy
4:53 AM 68.0 °F - 66.0 °F 93% 29.97 in 3.0 mi Calm Calm - N/A   Mostly Cloudy
5:53 AM 69.1 °F - 66.9 °F 93% 29.97 in 5.0 mi North 4.6 mph - 0.01 in Rain Light Rain
6:28 AM 69.1 °F - 66.9 °F 93% 30.06 in 2.0 mi Calm Calm - 0.00 in   Overcast
6:53 AM 69.1 °F - 68.0 °F 96% 29.98 in 2.0 mi Calm Calm - 0.00 in   Mostly Cloudy
7:47 AM 69.8 °F - 68.0 °F 94% 30.07 in 2.0 mi Calm Calm - N/A   Overcast
7:53 AM 70.0 °F - 68.0 °F 93% 29.99 in 6.0 mi Calm Calm - N/A   Overcast
8:53 AM 71.1 °F - 69.1 °F 93% 30.01 in 6.0 mi Calm Calm - N/A   Mostly Cloudy
9:39 AM 73.0 °F - 70.0 °F 90% 30.09 in 8.0 mi Calm Calm - N/A   Mostly Cloudy
9:53 AM 73.0 °F - 69.1 °F 87% 30.02 in 8.0 mi SE 4.6 mph - N/A   Mostly Cloudy
10:53 AM 73.9 °F - 70.0 °F 87% 30.02 in 10.0 mi ESE 4.6 mph - N/A   Mostly Cloudy
11:53 AM 79.0 °F - 70.0 °F 74% 30.01 in 10.0 mi SE 3.5 mph - N/A   Mostly Cloudy
12:53 PM 80.1 °F 84.2 °F 73.0 °F 79% 29.99 in 10.0 mi Calm Calm - 0.03 in   Overcast
1:08 PM 79.0 °F - 72.0 °F 79% 30.06 in 10.0 mi SE 4.6 mph - 0.00 in   Overcast
1:34 PM 77.0 °F - 72.0 °F 84% 30.04 in 10.0 mi SSE 4.6 mph - 0.00 in Rain Light Rain
1:53 PM 79.0 °F - 73.0 °F 82% 29.97 in 10.0 mi ESE 3.5 mph - 0.00 in   Partly Cloudy
2:53 PM 80.1 °F 84.2 °F 73.0 °F 79% 29.94 in 10.0 mi Calm Calm - 0.01 in Rain Light Rain
3:44 PM 81.0 °F 85.8 °F 73.0 °F 77% 30.00 in 4.0 mi SSW 6.9 mph - 0.00 in Rain , Thunderstorm Light Thunderstorms and Rain
3:53 PM 77.0 °F - 71.1 °F 82% 29.93 in 4.0 mi West 17.3 mph 26.5 mph 0.07 in Rain , Thunderstorm Light Thunderstorms and Rain
4:10 PM 72.0 °F - 66.9 °F 84% 29.99 in 2.0 mi Variable 4.6 mph - 0.17 in Rain , Thunderstorm Heavy Thunderstorms and Rain
4:21 PM 75.0 °F - 68.0 °F 79% 30.00 in 3.0 mi SSE 6.9 mph - 0.39 in Rain , Thunderstorm Heavy Thunderstorms and Rain
4:53 PM 79.0 °F - 70.0 °F 74% 29.91 in 10.0 mi Variable 3.5 mph - 0.39 in   Mostly Cloudy
5:31 PM 79.0 °F - 70.0 °F 74% 29.97 in 10.0 mi Calm Calm - N/A Thunderstorm Thunderstorm
5:53 PM 77.0 °F - 69.1 °F 76% 29.91 in 10.0 mi NNW 9.2 mph 20.7 mph N/A Thunderstorm Thunderstorm
6:37 PM 78.1 °F - 68.0 °F 71% 29.99 in 10.0 mi SSE 5.8 mph - N/A   Mostly Cloudy
6:53 PM 78.1 °F - 70.0 °F 76% 29.91 in 10.0 mi South 4.6 mph - N/A   Mostly Cloudy
7:53 PM 79.0 °F - 69.1 °F 72% 29.92 in 10.0 mi Calm Calm - N/A   Mostly Cloudy
8:53 PM 75.9 °F - 71.1 °F 85% 29.93 in 10.0 mi Calm Calm - N/A   Mostly Cloudy
9:53 PM 72.0 °F - 70.0 °F 93% 29.94 in 9.0 mi Calm Calm - N/A   Mostly Cloudy
10:53 PM 72.0 °F - 70.0 °F 93% 29.96 in 7.0 mi Calm Calm - N/A   Mostly Cloudy
11:53 PM 71.1 °F - 69.1 °F 93% 29.96 in 9.0 mi Calm Calm - N/A   Scattered Clouds